When you browse on this site, cookies collect data to enhance your experience and personalize the content and advertising you see.
Visit our Privacy Policy to learn more. By continuing to use the site, you agree to this use of cookies and data.
  • en Suisse
  • Liste des pays
  • À 7 jours
  • Température de l'eau
  • Carte satellitaire
  • Carte météo
  • Widgets météo
  • user-avatar
    Se connecter

    Météo par heure à Tovste

    Ce jour, 19 Février, Mardi

    Heure Température Précipitation Vent Pression Humidité
    00:00 -4°C° 0 mm 3 m/s 755 mmHg 74%
    01:00 -4°C° 0 mm 3 m/s 756 mmHg 76%
    02:00 -4°C° 0 mm 2 m/s 756 mmHg 78%
    03:00 -4°C° 0 mm 2 m/s 756 mmHg 78%
    04:00 -4°C° 0 mm 2 m/s 756 mmHg 79%
    05:00 -5°C° 0 mm 2 m/s 756 mmHg 79%
    06:00 -4°C° 0 mm 2 m/s 757 mmHg 77%
    07:00 -4°C° 0 mm 2 m/s 757 mmHg 74%
    08:00 -4°C° 0 mm 2 m/s 757 mmHg 72%
    09:00 -1°C° 0 mm 1 m/s 758 mmHg 67%
    10:00 0°C° 0 mm 1 m/s 758 mmHg 62%
    11:00 +1°C° 0 mm 1 m/s 758 mmHg 57%
    12:00 +2°C° 0 mm 1 m/s 758 mmHg 55%
    13:00 +2°C° 0 mm 1 m/s 758 mmHg 53%
    14:00 +3°C° 0 mm 1 m/s 758 mmHg 50%
    15:00 +2°C° 0 mm 1 m/s 757 mmHg 53%
    16:00 +2°C° 0 mm 1 m/s 757 mmHg 56%
    17:00 +1°C° 0 mm 1 m/s 757 mmHg 59%
    18:00 +1°C° 0 mm 1 m/s 757 mmHg 60%
    19:00 -1°C° 0 mm 2 m/s 756 mmHg 61%
    20:00 -2°C° 0 mm 2 m/s 756 mmHg 62%
    21:00 -2°C° 0 mm 3 m/s 756 mmHg 64%
    22:00 -2°C° 0 mm 3 m/s 756 mmHg 65%
    23:00 -3°C° 0 mm 4 m/s 756 mmHg 66%

    Demain, 20 Février, Mercredi

    Heure Température Précipitation Vent Pression Humidité
    00:00 -3°C° 0 mm 4 m/s 755 mmHg 68%
    01:00 -3°C° 0 mm 4 m/s 755 mmHg 70%
    02:00 -4°C° 0 mm 4 m/s 755 mmHg 72%
    03:00 -4°C° 0 mm 4 m/s 754 mmHg 71%
    04:00 -4°C° 0 mm 4 m/s 754 mmHg 69%
    05:00 -4°C° 0 mm 4 m/s 753 mmHg 67%
    06:00 -5°C° 0 mm 5 m/s 753 mmHg 66%
    07:00 -4°C° 0 mm 5 m/s 753 mmHg 64%
    08:00 -4°C° 0 mm 6 m/s 752 mmHg 63%
    09:00 -2°C° 0 mm 6 m/s 752 mmHg 59%
    10:00 -1°C° 0 mm 6 m/s 752 mmHg 55%
    11:00 +2°C° 0 mm 6 m/s 751 mmHg 51%
    12:00 +2°C° 0 mm 6 m/s 751 mmHg 54%
    13:00 +3°C° 0 mm 6 m/s 750 mmHg 58%
    14:00 +4°C° 0 mm 6 m/s 750 mmHg 61%
    15:00 +3°C° 0 mm 5 m/s 749 mmHg 67%
    16:00 +2°C° 0 mm 5 m/s 749 mmHg 73%
    17:00 +1°C° 0 mm 4 m/s 749 mmHg 78%
    18:00 +1°C° 0 mm 4 m/s 749 mmHg 81%
    19:00 +1°C° 0 mm 5 m/s 749 mmHg 83%
    20:00 +1°C° 0 mm 5 m/s 749 mmHg 85%
    21:00 +1°C° 0.1 mm 5 m/s 748 mmHg 87%
    22:00 +1°C° 0.1 mm 5 m/s 748 mmHg 88%
    23:00 +1°C° 0.1 mm 5 m/s 748 mmHg 89%

    Après-demain, 21 Février, Jeudi

    Heure Température Précipitation Vent Pression Humidité
    00:00 +1°C° 0.2 mm 5 m/s 748 mmHg 91%
    01:00 +1°C° 0.2 mm 4 m/s 748 mmHg 94%
    02:00 +1°C° 0.2 mm 4 m/s 747 mmHg 96%
    03:00 0°C° 0 mm 4 m/s 747 mmHg 96%
    04:00 0°C° 0 mm 4 m/s 747 mmHg 96%
    05:00 0°C° 0 mm 4 m/s 746 mmHg 96%
    06:00 0°C° 0 mm 5 m/s 746 mmHg 92%
    07:00 0°C° 0 mm 5 m/s 746 mmHg 88%
    08:00 -1°C° 0 mm 6 m/s 746 mmHg 85%
    09:00 -1°C° 0.1 mm 7 m/s 746 mmHg 79%
    10:00 0°C° 0.1 mm 7 m/s 746 mmHg 73%
    11:00 +1°C° 0.1 mm 8 m/s 746 mmHg 67%
    12:00 0°C° 0.1 mm 9 m/s 746 mmHg 63%
    13:00 0°C° 0.1 mm 9 m/s 746 mmHg 59%
    14:00 -1°C° 0.1 mm 9 m/s 746 mmHg 56%
    15:00 -3°C° 0 mm 9 m/s 746 mmHg 59%
    16:00 -4°C° 0 mm 8 m/s 747 mmHg 61%
    17:00 -4°C° 0 mm 7 m/s 747 mmHg 64%
    18:00 -4°C° 0.1 mm 7 m/s 747 mmHg 65%
    19:00 -4°C° 0.1 mm 7 m/s 748 mmHg 66%
    20:00 -6°C° 0.1 mm 7 m/s 748 mmHg 67%
    21:00 -5°C° 0 mm 6 m/s 748 mmHg 67%
    22:00 -5°C° 0 mm 6 m/s 748 mmHg 67%
    23:00 -6°C° 0 mm 5 m/s 749 mmHg 67%

    22 Février, Vendredi

    Heure Température Précipitation Vent Pression Humidité
    00:00 -6°C° 0 mm 5 m/s 749 mmHg 67%
    01:00 -6°C° 0 mm 5 m/s 749 mmHg 67%
    02:00 -7°C° 0 mm 5 m/s 749 mmHg 67%
    03:00 -7°C° 0 mm 5 m/s 749 mmHg 68%
    04:00 -7°C° 0 mm 5 m/s 749 mmHg 69%
    05:00 -7°C° 0 mm 5 m/s 749 mmHg 70%
    06:00 -7°C° 0 mm 5 m/s 749 mmHg 70%
    07:00 -7°C° 0 mm 5 m/s 749 mmHg 69%
    08:00 -7°C° 0 mm 5 m/s 749 mmHg 69%
    09:00 -6°C° 0 mm 5 m/s 749 mmHg 67%
    10:00 -6°C° 0 mm 5 m/s 749 mmHg 65%
    11:00 -6°C° 0 mm 5 m/s 749 mmHg 64%
    12:00 -6°C° 0 mm 5 m/s 750 mmHg 63%
    13:00 -6°C° 0 mm 5 m/s 750 mmHg 63%
    14:00 -6°C° 0 mm 5 m/s 750 mmHg 62%
    15:00 -8°C° 0.1 mm 6 m/s 750 mmHg 64%
    16:00 -9°C° 0.1 mm 6 m/s 751 mmHg 66%
    17:00 -9°C° 0.1 mm 7 m/s 751 mmHg 68%
    18:00 -11°C° 0 mm 7 m/s 752 mmHg 65%
    19:00 -12°C° 0 mm 7 m/s 752 mmHg 62%
    20:00 -12°C° 0 mm 6 m/s 753 mmHg 59%
    21:00 -12°C° 0 mm 6 m/s 753 mmHg 59%
    22:00 -14°C° 0 mm 6 m/s 753 mmHg 60%
    23:00 -13°C° 0 mm 5 m/s 754 mmHg 60%

    23 Février, Samedi

    Heure Température Précipitation Vent Pression Humidité
    00:00 -13°C° 0 mm 5 m/s 754 mmHg 61%
    01:00 -13°C° 0 mm 5 m/s 754 mmHg 63%
    02:00 -14°C° 0 mm 5 m/s 754 mmHg 64%
    03:00 -14°C° 0 mm 5 m/s 754 mmHg 67%
    04:00 -14°C° 0 mm 5 m/s 754 mmHg 69%
    05:00 -15°C° 0 mm 4 m/s 754 mmHg 71%
    06:00 -15°C° 0 mm 4 m/s 755 mmHg 71%
    07:00 -15°C° 0 mm 4 m/s 755 mmHg 71%
    08:00 -15°C° 0 mm 4 m/s 755 mmHg 72%
    09:00 -14°C° 0 mm 5 m/s 756 mmHg 68%
    10:00 -13°C° 0 mm 5 m/s 756 mmHg 64%
    11:00 -12°C° 0 mm 5 m/s 756 mmHg 59%
    12:00 -12°C° 0 mm 5 m/s 756 mmHg 58%
    13:00 -12°C° 0 mm 5 m/s 756 mmHg 56%
    14:00 -11°C° 0 mm 5 m/s 756 mmHg 55%
    15:00 -12°C° 0 mm 5 m/s 756 mmHg 57%
    16:00 -12°C° 0 mm 5 m/s 756 mmHg 60%
    17:00 -12°C° 0 mm 5 m/s 757 mmHg 62%
    18:00 -11°C° 0 mm 4 m/s 757 mmHg 63%
    19:00 -12°C° 0 mm 4 m/s 757 mmHg 64%
    20:00 -12°C° 0 mm 4 m/s 758 mmHg 65%
    21:00 -12°C° 0 mm 4 m/s 758 mmHg 66%
    22:00 -12°C° 0 mm 4 m/s 758 mmHg 68%
    23:00 -12°C° 0 mm 3 m/s 758 mmHg 69%

    24 Février, Dimanche

    Heure Température Précipitation Vent Pression Humidité
    00:00 -14°C° 0 mm 4 m/s 758 mmHg 72%
    01:00 -14°C° 0 mm 4 m/s 758 mmHg 74%
    02:00 -14°C° 0 mm 4 m/s 758 mmHg 76%
    03:00 -14°C° 0 mm 4 m/s 758 mmHg 77%
    04:00 -15°C° 0 mm 4 m/s 758 mmHg 79%
    05:00 -15°C° 0 mm 4 m/s 758 mmHg 80%
    06:00 -15°C° 0 mm 4 m/s 758 mmHg 79%
    07:00 -15°C° 0 mm 4 m/s 759 mmHg 78%
    08:00 -15°C° 0 mm 4 m/s 759 mmHg 78%
    09:00 -14°C° 0 mm 4 m/s 759 mmHg 73%
    10:00 -12°C° 0 mm 4 m/s 759 mmHg 68%
    11:00 -11°C° 0 mm 4 m/s 759 mmHg 63%
    12:00 -11°C° 0 mm 5 m/s 759 mmHg 62%
    13:00 -11°C° 0 mm 5 m/s 759 mmHg 62%
    14:00 -11°C° 0 mm 5 m/s 759 mmHg 61%
    15:00 -11°C° 0 mm 5 m/s 759 mmHg 63%
    16:00 -11°C° 0 mm 5 m/s 759 mmHg 66%
    17:00 -12°C° 0 mm 5 m/s 759 mmHg 68%
    18:00 -12°C° 0 mm 5 m/s 759 mmHg 68%
    19:00 -12°C° 0 mm 5 m/s 760 mmHg 68%
    20:00 -12°C° 0 mm 5 m/s 760 mmHg 68%
    21:00 -12°C° 0 mm 5 m/s 760 mmHg 68%
    22:00 -12°C° 0 mm 5 m/s 760 mmHg 68%
    23:00 -12°C° 0 mm 5 m/s 760 mmHg 69%
    Voir plus